Location: Male Bielice
(48.6330°N, 18.3330°E)
Time: 04:44:43
(UTC+02:00)

ISS - Visible Passes

Search period start: 28 May 2017 00:00
Search period end: 07 June 2017 00:00
Orbit: 402 x 408 km, 51.6° (Epoch: 28 May)

Date Brightness Start Highest point End Pass type
(mag) Time Alt. Az. Time Alt. Az. Time Alt. Az.
28 May -2.9 00:07:56 10° WNW 00:11:10 50° N 00:14:23 10° E visible
28 May -3.8 01:44:30 10° WNW 01:47:25 60° WSW 01:47:25 60° WSW visible
28 May -3.7 21:39:00 10° WSW 21:42:19 82° NNW 21:45:38 10° ENE visible
28 May -2.8 23:15:49 10° WNW 23:19:02 47° N 23:22:15 10° ENE visible
29 May -3.9 00:52:27 10° WNW 00:55:45 83° NNE 00:56:01 73° E visible
29 May -2.8 22:23:40 10° W 22:26:54 49° N 22:30:07 10° ENE visible
30 May -3.4 00:00:23 10° WNW 00:03:40 63° NNE 00:05:09 29° E visible
30 May -1.5 01:37:01 10° WNW 01:37:46 15° W 01:37:46 15° W visible
30 May -3.1 21:31:29 10° W 21:34:45 57° NNW 21:38:01 10° ENE visible
30 May -3.0 23:08:17 10° WNW 23:11:32 52° N 23:14:27 12° E visible
31 May -2.9 00:44:51 10° WNW 00:47:04 37° W 00:47:04 37° W visible
31 May -2.8 22:16:08 10° WNW 22:19:22 47° N 22:22:35 10° ENE visible
31 May -4.0 23:52:45 10° WNW 23:56:03 87° SSW 23:56:30 64° ESE visible
01 Jun -2.8 21:23:58 10° W 21:27:11 48° N 21:30:24 10° ENE visible
01 Jun -3.6 23:00:38 10° WNW 23:03:56 69° NNE 23:05:58 21° E visible
02 Jun -1.8 00:37:19 10° W 00:38:36 19° W 00:38:36 19° W visible
02 Jun -3.1 22:08:31 10° WNW 22:11:47 55° N 22:15:02 10° E visible
02 Jun -3.5 23:45:05 10° WNW 23:48:06 48° SW 23:48:06 48° SW visible
03 Jun -3.9 22:52:56 10° WNW 22:56:13 76° SSW 22:57:39 31° SE visible
04 Jun -1.1 00:30:10 10° W 00:30:17 10° W 00:30:17 10° W visible
04 Jun -3.7 22:00:47 10° WNW 22:04:05 77° NNE 22:07:12 11° ESE visible
04 Jun -2.4 23:37:33 10° W 23:39:51 25° SW 23:39:51 25° SW visible
05 Jun -3.2 22:45:13 10° WNW 22:48:21 41° SSW 22:49:27 30° SSE visible
06 Jun -3.7 21:53:00 10° WNW 21:56:16 65° SSW 21:59:04 13° SE visible
06 Jun -1.4 23:30:35 10° WSW 23:31:42 13° SW 23:31:42 13° SW visible
